Regional Weather Roundup
Issued by NWS Goodland, KS

Home | Current Version | Previous Version | Graphics & Text | Print | Product List | Glossary On
Versions: 1 2 3 4 5 6 7 8 9 10 11 12 13 14 15 16 17 18 19 20 21 22 23 24 25 26 27 28 29 30 31 32 33 34 35 36 37 38 39 40 41 42 43 44 45 46 47 48 49 50
000
ASUS43 KGLD 261808
RWRGLD

GOODLAND FORECAST AREA HOURLY WEATHER ROUNDUP
NATIONAL WEATHER SERVICE GOODLAND KS
1100 AM MST FRI DEC 26 2014

...OFFICIAL OBSERVATIONS...

CITY           SKY/WX    TMP DP  RH WIND       PRES   REMARKS
GOODLAND KS    LGT SNOW  23  20  88 N15       29.97F FOG     WCI  10
HILL CITY KS   CLOUDY    29  21  72 N14       30.02S WCI  18
IMPERIAL NEB   SNOW      22  18  85 N15       30.02F VSB 1/2 WCI   9
MCCOOK NEB     CLOUDY    26  20  77 N18       30.02F WCI  13
AKRON CO       LGT SNOW  17  14  88 N9        29.97S VSB 1
BURLINGTON CO  LGT SNOW  21  16  81 N13       29.95F WCI   9
LIMON CO       CLOUDY    16  12  84 N14       29.93S WCI   2
$$

...UNOFFICIAL OBSERVATIONS...

CITY           SKY/WX    TMP DP  RH WIND       PRES   REMARKS
COLBY KS       LGT SNOW  27  25  93 N15       29.98F WCI  15
NORTON KS      CLOUDY    28  19  69 N14       30.00F WCI  17
SHARON SPRINGS   N/A     24  22  93 NE12        N/A  WCI  13
TRIBUNE KS     CLOUDY    25  25 100 N16       29.97F WCI  12
KIT CARSON CO    N/A     22  18  84 MISG        N/A
YUMA CO          N/A     19  15  85 N12         N/A  WCI   7
$$


USA.gov is the U.S. government's official web portal to all federal, state and local government web resources and services.